K4MDI Weather Reports


Display with metric or nautical units.
time (UTC)temp
F
wind
direction
speed
MPH
gust
MPH
rain 1hr
in
rain 24hr
in
rain mn
in
humidity
%
barometer
mb
20260505194039 81 68 1.0 2.0 0.00 0.00 0.00 41 1013.8
20260505193039 80 113 1.0 3.0 0.00 0.00 0.00 41 1014.0
20260505192019 80 90 2.0 7.0 0.00 0.00 0.00 38 1014.2
20260505191019 81 0.0 3.0 0.00 0.00 0.00 40 1014.5
20260505190019 80 113 1.0 6.0 0.00 0.00 0.00 41 1014.7
20260505185039 80 0.0 5.0 0.00 0.00 0.00 43 1014.7
20260505184018 79 113 1.0 3.0 0.00 0.00 0.00 42 1014.9
20260505183019 80 68 1.0 3.0 0.00 0.00 0.00 39 1014.9
20260505182019 80 90 2.0 5.0 0.00 0.00 0.00 40 1014.9
20260505181019 80 113 2.0 9.0 0.00 0.00 0.00 40 1014.9
20260505180038 80 90 1.0 3.0 0.00 0.00 0.00 41 1015.2
20260505175019 79 90 1.0 3.0 0.00 0.00 0.00 40 1015.4
20260505174018 79 113 1.0 4.0 0.00 0.00 0.00 41 1015.7
20260505173019 78 113 2.0 5.0 0.00 0.00 0.00 40 1015.7
20260505172039 79 90 1.0 4.0 0.00 0.00 0.00 42 1015.9
20260505171039 78 0.0 3.0 0.00 0.00 0.00 40 1015.9
20260505170018 79 68 1.0 4.0 0.00 0.00 0.00 41 1016.0
20260505165019 79 90 1.0 4.0 0.00 0.00 0.00 43 1015.9
20260505164018 77 90 1.0 3.0 0.00 0.00 0.00 45 1015.9
20260505163018 76 113 1.0 2.0 0.00 0.00 0.00 47 1015.9
20260505162019 76 90 1.0 9.0 0.00 0.00 0.00 48 1016.2
20260505161018 77 113 1.0 2.0 0.00 0.00 0.00 50 1016.2
20260505153038 74 0.0 1.0 0.00 0.00 0.00 53 1016.5
20260505152018 72 0.0 1.0 0.00 0.00 0.00 56 1016.8
20260505151018 71 315 1.0 3.0 0.00 0.00 0.00 58 1016.7
20260505125018 53 0.0 1.0 0.00 0.00 0.00 97 1016.0
20260505124018 51 0.0 0.0 0.00 0.00 0.00 97 1015.9
20260505123018 50 0.0 0.0 0.00 0.00 0.00 97 1016.0
20260505122020 48 0.0 0.0 0.00 0.00 0.00 97 1016.0
20260505121020 47 0.0 0.0 0.00 0.00 0.00 97 1015.7
20260505120018 46 0.0 0.0 0.00 0.00 0.00 96 1015.6
20260505115020 46 0.0 0.0 0.00 0.00 0.00 96 1015.5
20260505114020 45 0.0 0.0 0.00 0.00 0.00 96 1015.4
20260505113018 45 0.0 0.0 0.00 0.00 0.00 96 1015.3
20260505112018 44 0.0 0.0 0.00 0.00 0.00 96 1015.3
20260505111040 44 0.0 0.0 0.00 0.00 0.00 96 1015.4
20260505102018 45 0.0 0.0 0.00 0.00 0.00 95 1015.2
20260505101038 45 23 1.0 3.0 0.00 0.00 0.00 95 1015.2
20260505100020 45 0.0 1.0 0.00 0.00 0.00 95 1015.1
20260505095040 45 0.0 0.0 0.00 0.00 0.00 95 1015.0
20260505094018 45 0.0 0.0 0.00 0.00 0.00 95 1015.1
20260505093040 46 0.0 0.0 0.00 0.00 0.00 95 1015.2
20260505092020 46 0.0 0.0 0.00 0.00 0.00 95 1015.0
20260505091019 46 0.0 0.0 0.00 0.00 0.00 95 1015.1
20260505090019 46 0.0 2.0 0.00 0.00 0.00 95 1015.1
20260505085024 0 0.0 0.0 0.00 0.00 0.00
20260505084019 0 0.0 0.0 0.00 0.00 0.00
20260505083030 0 0.0 0.0 0.00 0.00 0.00
20260505082607 42 0.0 0.0 0.00 0.00 0.00 59 1014.8
20260505081540 46 0.0 0.0 0.00 0.00 0.00 59 1015.0
20260505080540 46 0.0 0.0 0.00 0.00 0.00 60 1014.6
20260505075520 46 0.0 0.0 0.00 0.00 0.00 60 1014.5
20260505074520 47 0.0 0.0 0.00 0.00 0.00 58 1014.5
20260505073540 48 0.0 0.0 0.00 0.00 0.00 58 1014.5
20260505072540 48 0.0 0.0 0.00 0.00 0.00 58 1014.5
20260505071640 48 0.0 0.0 0.00 0.00 0.00 59 1014.6
20260505070520 48 0.0 0.0 0.00 0.00 0.00 60 1014.6
20260505065520 48 0.0 0.0 0.00 0.00 0.00 62 1014.7
20260505064520 48 0.0 0.0 0.00 0.00 0.00 65 1014.7
20260505063519 48 0.0 0.0 0.00 0.00 0.00 66 1014.8
20260505062520 48 0.0 0.0 0.00 0.00 0.00 67 1014.9
20260505061519 49 0.0 0.0 0.00 0.00 0.00 68 1014.9
20260505060540 49 0.0 0.0 0.00 0.00 0.00 69 1014.9
20260505055519 49 0.0 0.0 0.00 0.00 0.00 70 1015.0
20260505054519 49 0.0 0.0 0.00 0.00 0.00 70 1014.8
20260505053519 50 0.0 0.0 0.00 0.00 0.00 73 1014.9
20260505052520 50 0.0 0.0 0.00 0.00 0.00 75 1014.9
20260505051520 50 0.0 0.0 0.00 0.00 0.00 76 1014.9
20260505050519 51 0.0 0.0 0.00 0.00 0.00 77 1015.0
20260505041559 53 0.0 0.0 0.00 0.00 0.00 78 1014.9
20260505040519 53 0.0 0.0 0.00 0.00 0.00 78 1014.9
20260505035519 54 0.0 0.0 0.00 0.00 0.00 78 1014.9
20260505034519 55 0.0 0.0 0.00 0.00 0.00 77 1015.0
20260505033520 56 0.0 0.0 0.00 0.00 0.00 77 1015.0
20260505032539 57 0.0 0.0 0.00 0.00 0.00 75 1015.1
20260505031519 58 0.0 0.0 0.00 0.00 0.00 74 1015.0
20260505030519 59 0.0 0.0 0.00 0.00 0.00 70 1015.1
20260505025519 61 0.0 0.0 0.00 0.00 0.00 70 1015.2
20260505024539 60 0.0 0.0 0.00 0.00 0.00 68 1015.0
20260505023519 59 0.0 0.0 0.00 0.00 0.00 72 1015.0
20260505022539 59 0.0 0.0 0.00 0.00 0.00 74 1014.9
20260505021519 59 0.0 0.0 0.00 0.00 0.00 74 1014.6
20260505020519 59 0.0 0.0 0.00 0.00 0.00 75 1014.5
20260505015539 58 0.0 0.0 0.00 0.00 0.00 76 1014.5
20260505014539 59 0.0 0.0 0.00 0.00 0.00 75 1014.3
20260505013519 60 0.0 0.0 0.00 0.00 0.00 74 1014.1
20260505012519 60 0.0 0.0 0.00 0.00 0.00 73 1014.1
20260505011519 61 0.0 0.0 0.00 0.00 0.00 73 1013.9
20260505010539 62 0.0 0.0 0.00 0.00 0.00 70 1013.7
20260505005539 64 0.0 0.0 0.00 0.00 0.00 66 1013.7
20260505004519 65 0.0 0.0 0.00 0.00 0.00 64 1013.6
20260505003539 65 0.0 0.0 0.00 0.00 0.00 65 1013.5
20260505002519 66 0.0 0.0 0.00 0.00 0.00 65 1013.6
20260505001539 67 0.0 0.0 0.00 0.00 0.00 67 1013.5
20260505000519 69 0.0 0.0 0.00 0.00 0.00 64 1013.5
20260504235519 70 0.0 0.0 0.00 0.00 0.00 54 1013.5
20260504234519 71 0.0 0.0 0.00 0.00 0.00 51 1013.3
20260504233519 72 0.0 0.0 0.00 0.00 0.00 52 1013.3
20260504232538 73 0.0 0.0 0.00 0.00 0.00 51 1013.3
20260504231519 74 0.0 0.0 0.00 0.00 0.00 49 1013.3
20260504230519 75 0.0 0.0 0.00 0.00 0.00 48 1013.3
20260504225518 76 0.0 2.0 0.00 0.00 0.00 43 1013.2
20260504224519 76 0.0 0.0 0.00 0.00 0.00 41 1013.3
20260504223519 77 68 1.0 4.0 0.00 0.00 0.00 42 1013.4
20260504222519 76 0.0 1.0 0.00 0.00 0.00 42 1013.4
20260504222104 76 0.0 0.0 0.00 0.00 0.00 41 1013.4
20260504221613 76 113 1.0 4.0 0.00 0.00 0.00 41 1013.4
20260504220519 77 90 1.0 3.0 0.00 0.00 0.00 43 1013.5
20260504215519 77 90 1.0 5.0 0.00 0.00 0.00 40 1013.4
20260504214519 77 0.0 1.0 0.00 0.00 0.00 43 1013.5
20260504213519 76 0.0 2.0 0.00 0.00 0.00 42 1013.5
20260504212518 77 0.0 1.0 0.00 0.00 0.00 42 1013.4
20260504211538 77 0.0 0.0 0.00 0.00 0.00 42 1013.5
20260504210519 77 0.0 1.0 0.00 0.00 0.00 40 1013.6
20260504205519 77 0.0 2.0 0.00 0.00 0.00 38 1013.5
20260504204518 78 113 1.0 3.0 0.00 0.00 0.00 38 1013.7
20260504203519 78 0.0 2.0 0.00 0.00 0.00 36 1013.8
20260504202519 79 113 2.0 5.0 0.00 0.00 0.00 38 1013.9
20260504201539 79 0.0 3.0 0.00 0.00 0.00 35 1013.9
20260504200518 80 90 1.0 3.0 0.00 0.00 0.00 35 1014.0
20260504195519 80 0.0 2.0 0.00 0.00 0.00 35 1014.1
20260504194539 81 0.0 2.0 0.00 0.00 0.00 36 1014.2